Back to catalog

FLYLAB 1

AliveScienceSSO
NORAD 68472·PAYLOAD·🇫🇷 France

Launched Mar 30, 2026 from Vandenberg Space Force Base

Loading…

Next Passes (next 24 hours)

TLE

FreshSource: Space-Track

Epoch: Sep 14, 2026, 07:56 UTC

1 68472U 26067BJ  26257.33090696  .00000691  00000-0  73580-4 0  9999
2 68472  97.7726 214.1446 0005188 102.9111 257.2688 14.92046866 25018

Track FLYLAB 1 in real time with AllMySat

Download on the App Store